Weather History for Salinas, CA

Change the Weather History Date:

Monday, October 14, 2013

  Actual Average Record
Temperature  
Mean Temperature 64 °F 62 °F  
Max Temperature 81 °F 73 °F 102 °F (1961)
Min Temperature 47 °F 50 °F 38 °F (1960)
Degree Days  
Heating Degree Days 1 4  
Month to date heating degree days 59 49  
Since 1 July heating degree days 182 244  
Cooling Degree Days 0 1  
Month to date cooling degree days 12 14  
Year to date cooling degree days 150 119  
Growing Degree Days 14 (Base 50)    
Moisture  
Dew Point 42 °F    
Average Humidity 55    
Maximum Humidity 86    
Minimum Humidity 23    
Precipitation  
Precipitation 0.00 in 0.01 in 0.42 in (1938)
Month to date precipitation 0.00 0.19  
Year to date precipitation 2.44 9.11  
Since 1 July precipitation 0.11 0.39  
Sea Level Pressure  
Sea Level Pressure 30.07 in    
Wind  
Wind Speed 6 mph (East)    
Max Wind Speed 15 mph    
Max Gust Speed -    
Visibility 10 miles    
Events      
T = Trace of Precipitation, MM = Missing Value Source: NWS Daily Summary

Daily Weather History Graph

Daily Weather History Graph

Search for Another Location

Airport:

Trip Planner

Search our weather history database for the weather conditions in past years. The results will help you decide how hot, cold, wet, or windy it might be!

Date:

Astronomy

Oct. 14, 2013 Rise Set
Actual Time 7:13 AM PDT 6:30 PM PDT
Civil Twilight 6:47 AM PDT 6:56 PM PDT
Nautical Twilight 6:17 AM PDT 7:26 PM PDT
Astronomical Twilight 5:47 AM PDT 7:56 PM PDT
Moon 3:57 PM PDT (10/14) 2:42 AM PDT (10/14)
Length of Visible Light 12h 09m
Length of Day
11h 17m
Waxing Gibbous, 80% of the Moon is Illuminated
Oct 14
Waxing Gibbous
Oct 18
Full
Oct 26
Last Quarter
Nov 3
New
Nov 9
First Quarter

Hourly Weather History & Observations

Time (PDT) Temp. Dew Point Humidity Pressure Visibility Wind Dir Wind Speed Gust Speed Precip Events Conditions
12:53 AM 51.1 °F 44.1 °F 77% 30.10 in 10.0 mi Calm Calm - N/A   Clear
1:53 AM 48.0 °F 43.0 °F 83% 30.10 in 10.0 mi ESE 4.6 mph - N/A   Clear
2:53 AM 46.9 °F 42.1 °F 83% 30.10 in 10.0 mi Calm Calm - N/A   Clear
3:53 AM 48.0 °F 43.0 °F 83% 30.09 in 10.0 mi ESE 8.1 mph - N/A   Clear
4:53 AM 48.0 °F 43.0 °F 83% 30.09 in 10.0 mi ESE 5.8 mph - N/A   Clear
5:53 AM 48.0 °F 42.1 °F 80% 30.10 in 10.0 mi ESE 9.2 mph - N/A   Clear
6:53 AM 48.0 °F 42.1 °F 80% 30.11 in 10.0 mi ESE 5.8 mph - N/A   Clear
7:53 AM 48.0 °F 41.0 °F 77% 30.12 in 10.0 mi ESE 5.8 mph - N/A   Clear
8:53 AM 53.1 °F 42.1 °F 66% 30.13 in 10.0 mi East 9.2 mph - N/A   Clear
9:53 AM 60.1 °F 43.0 °F 53% 30.13 in 10.0 mi ESE 9.2 mph - N/A   Clear
10:53 AM 66.0 °F 44.1 °F 45% 30.12 in 10.0 mi East 5.8 mph - N/A   Clear
11:53 AM 73.0 °F 43.0 °F 34% 30.10 in 10.0 mi Calm Calm - N/A   Clear
12:53 PM 77.0 °F 37.9 °F 24% 30.07 in 10.0 mi West 3.5 mph - N/A   Clear
1:53 PM 81.0 °F 39.0 °F 22% 30.04 in 10.0 mi NW 3.5 mph - N/A   Clear
2:53 PM 75.0 °F 45.0 °F 34% 30.02 in 10.0 mi West 15.0 mph - N/A   Clear
3:53 PM 72.0 °F 43.0 °F 35% 30.01 in 10.0 mi West 15.0 mph - N/A   Clear
4:53 PM 71.1 °F 42.1 °F 35% 30.02 in 10.0 mi West 6.9 mph - N/A   Clear
5:53 PM 69.1 °F 43.0 °F 39% 30.02 in 10.0 mi West 6.9 mph - N/A   Clear
6:53 PM 68.0 °F 42.1 °F 39% 30.02 in 10.0 mi WNW 4.6 mph - N/A   Clear
7:53 PM 64.9 °F 42.1 °F 43% 30.03 in 10.0 mi North 3.5 mph - N/A   Clear
8:53 PM 63.0 °F 43.0 °F 48% 30.03 in 10.0 mi NW 3.5 mph - N/A   Clear
9:53 PM 57.9 °F 42.1 °F 56% 30.04 in 10.0 mi East 3.5 mph - N/A   Clear
10:53 PM 57.9 °F 43.0 °F 58% 30.05 in 10.0 mi Calm Calm - N/A   Clear
11:53 PM 54.0 °F 42.1 °F 64% 30.05 in 10.0 mi Calm Calm - N/A   Clear